Location: Antioch Baptist Church
(32.6696°N, 85.7327°W)
Time: 20:01:40
(UTC+00:00)

ATLAS 2A CENTAUR R/B - Pass Details

Date: 14 July 2020
Orbit: 276 x 15881 km, 26.8° (Epoch: 12 August)

Event Time Altitude Azimuth Distance (km) Brightness Sun altitude
Exits shadow 08:13:26 37° 157° (SSE) 1,508 3.7 -25.7°
Drops below altitude 10° 08:16:27 10° 109° (ESE) 1,999 4.9 -25.3°
Sets 08:17:55 0° 99° (E) 2,555 5.6 -25.1°
